Regional Weather Roundup
Issued by NWS

Home | Current Version | Previous Version | Graphics & Text | Print | Product List | Glossary On
Versions: 1 2 3 4 5 6 7 8 9 10 11 12 13 14 15 16 17 18 19 20 21 22 23 24 25 26 27
000
ASUS45 KTFX 260310
RWRMT
MONTANA REGIONAL WEATHER ROUNDUP
NATIONAL WEATHER SERVICE GREAT FALLS MT
900 PM MDT SUN JUN 25 2017

NOTE: "FAIR" INDICATES FEW OR NO CLOUDS BELOW 12000 FEET WITH NO
SIGNIFICANT WEATHER AND/OR OBSTRUCTIONS TO VISIBILITY.

MTZ001>007-043-260400-
WEST OF THE DIVIDE

CITY           SKY/WX    TMP DP  RH WIND       PRES   REMARKS
KALISPELL      PTCLDY    76  60  57 CALM      30.05F
MISSOULA       CLEAR     79  50  36 N3        30.05F
BUTTE          CLEAR     74  39  28 SE3       30.24R
MULLAN PASS    CLEAR     72  36  26 SE5       30.24F
ANACONDA         N/A     73  39  29 CALM      30.19S
DEER LODGE       N/A     70  48  46 W3        30.20S
EUREKA           N/A     81  46  30 CALM      30.01S
HAMILTON         N/A     82  43  24 CALM      30.08S
$$

MTZ008-052>055-260400-
SOUTHWEST MONTANA

CITY           SKY/WX    TMP DP  RH WIND       PRES   REMARKS
BOZEMAN        CLEAR     72  42  34 E5        30.19F
DILLON         CLEAR     71  47  42 NE8       30.19S
W YELLOWSTONE  CLEAR     68  34  28 CALM      30.32S
ENNIS          CLEAR     68  46  45 N9        30.28S
THREE FORKS      N/A     74  51  44 CALM      30.16S
$$

MTZ009-010-012-014-046-048-049-054-260400-
EAST SLOPES AND CENTRAL MONTANA

CITY           SKY/WX    TMP DP  RH WIND       PRES   REMARKS
CUT BANK       PTCLDY    73  42  32 E7        30.15F
GREAT FALLS    CLEAR     73  39  29 E10       30.15F
MALMSTROM AFB  CLEAR     69  48  47 NE7       30.15F
HELENA         CLEAR     81  39  22 SE6       30.12F
CHOTEAU          N/A     70  45  40 E7        30.18S
$$

MTZ011-013-016-021-045-047-050-051-260400-
NORTH CENTRAL MONTANA

CITY           SKY/WX    TMP DP  RH WIND       PRES   REMARKS
HAVRE          CLEAR     72  40  31 E8        30.15F
LEWISTOWN      CLEAR     69  39  33 E6        30.22S
N BAR RANCH      N/A     66  34  30 E7        30.27S
CHINOOK          N/A     75  41  29 CALM      30.15S
FORT BENTON      N/A     73  39  29 MISG      30.15S
$$

MTZ017>020-022>027-061-062-260400-
NORTHEAST MONTANA

CITY           SKY/WX    TMP DP  RH WIND       PRES   REMARKS
GLASGOW        CLEAR     69  35  28 NE10      30.18S
JORDAN           N/A     72  33  24 E6        30.18S
SIDNEY         CLEAR     63  44  50 NE7       30.21S
WOLF POINT     CLEAR     70  37  29 NE8       30.19R
MALTA          CLEAR     68  43  40 NE6       30.16S
PLENTYWOOD       N/A     63  41  45 CALM      30.22S
POPLAR           N/A     66  41  39 E7        30.20S
$$

MTZ028>42-056>058-260400-
SOUTHCENTRAL AND SOUTHEAST MONTANA

CITY           SKY/WX    TMP DP  RH WIND       PRES   REMARKS
BAKER          CLEAR     62  35  36 E8        30.23S
BILLINGS       CLEAR     74  34  23 E9        30.20S
LIVINGSTON     CLEAR     72  47  40 E6        30.21S
MILES CITY     CLEAR     72  32  23 E7        30.19S
BIG TIMBER     CLEAR     70  37  30 SE10      30.24S
ROUNDUP          N/A     72  31  22 NE5       30.10S
$$

REGIONAL REPORTS...DAKOTAS

CITY           SKY/WX    TMP DP  RH WIND       PRES   REMARKS
WILLISTON      CLEAR     65  44  46 E6        30.22S
MINOT          CLEAR     57  40  52 NE3       30.23R
DICKINSON      CLEAR     54  39  57 E7        30.22R
BEACH            N/A     55  43  62 E8        30.25S
CROSBY           N/A     57  46  67 NE6       30.23F
TIOGA            N/A     55  43  62 E8        30.25R
WATFORD CITY     N/A     61  43  51 NE6       30.22S
BISMARCK       CLEAR     60  45  57 NE7       30.23R
GRAND FORKS    PTCLDY    53  45  74 N3        30.19R
FARGO          CLEAR     58  40  51 N9        30.18R
BUFFALO SD       N/A     62  38  40 NE12      30.17S
RAPID CITY     CLEAR     63  29  27 N10       30.20R
$$

REGIONAL REPORTS...WYOMING/IDAHO/WASHINGTON

CITY           SKY/WX    TMP DP  RH WIND       PRES   REMARKS
GILLETTE       CLEAR     60  35  39 N6        30.26R
SHERIDAN       CLEAR     63  42  46 NW3       30.25S
BUFFALO WY     CLEAR     63  39  41 NW6       30.31S
CODY           CLEAR     69  36  29 N6        30.28S
YELLOWSTONE LA   N/A     61  35  37 VRB5      30.43R
IDAHO FALLS    CLEAR     80  43  26 E8        30.18S
SALMON         CLEAR     73  45  35 SW5       30.06R
BOISE          CLEAR     92  38  15 N5        29.96S
SPOKANE        PTCLDY    90  39  16 E5        29.95F
$$

REGIONAL REPORTS...ALBERTA

CITY           SKY/WX    TMP DP  RH WIND       PRES   REMARKS
EDMONTON       CLEAR     70  54  56 SE14      30.02F
CALGARY        PTCLDY    70  48  46 SE17G25   30.09F
LETHBRIDGE     MOCLDY    70  54  56 E8        30.08F
MEDICINE HAT   PTCLDY    72  43  35 E13       30.12F
WATERTON GATE    N/A     72  54  53 N3          N/A
$$

REGIONAL REPORTS...SASKATCHEWAN

CITY           SKY/WX    TMP DP  RH WIND       PRES   REMARKS
SWIFT CURRENT  CLEAR     63  41  45 E3        30.21F
REGINA         PTCLDY    59  37  44 NE8       30.26R
SASKATOON      PTCLDY    63  39  42 SE7       30.22F
VAL MARIE        N/A     61  39  44 E8          N/A
ROCKGLEN         N/A     61  37  41 NE5         N/A
ASSINIBOIA       N/A     68  50  52 SE10        N/A
$$




USA.gov is the U.S. government's official web portal to all federal, state and local government web resources and services.